Weather History for KAEG - November, 2013

Change the Weather History Date:

Tuesday, November 12, 2013

  Actual Average Record
Temperature  
Mean Temperature 42 °F -  
Max Temperature 53 °F - - ()
Min Temperature 30 °F - - ()
Degree Days  
Heating Degree Days 23    
Moisture  
Dew Point 27 °F    
Average Humidity 65    
Maximum Humidity 88    
Minimum Humidity 39    
Precipitation  
Precipitation 0.00 in - - ()
Sea Level Pressure  
Sea Level Pressure 30.53 in    
Wind  
Wind Speed 5 mph (NW)    
Max Wind Speed 17 mph    
Max Gust Speed 23 mph    
Visibility 10 miles    
Events      
T = Trace of Precipitation, MM = Missing Value Source: NWS Daily Summary

Daily Weather History Graph

Daily Weather History Graph

Search for Another Location

Airport or City:

Trip Planner

Search our weather history database for the weather conditions in past years. The results will help you decide how hot, cold, wet, or windy it might be!

Date:

Astronomy

Nov. 12, 2013 Rise Set
Actual Time 6:39 AM MST 5:03 PM MST
Civil Twilight 6:12 AM MST 5:29 PM MST
Nautical Twilight 5:41 AM MST 6:00 PM MST
Astronomical Twilight 5:11 AM MST 6:30 PM MST
Moon 2:09 PM MST (11/12) 1:42 AM MST (11/12)
Length of Visible Light 11h 17m
Length of Day
10h 23m
Waxing Gibbous, 77% of the Moon is Illuminated
Nov 12
Waxing Gibbous
Nov 17
Full
Nov 25
Last Quarter
Dec 2
New
Dec 9
First Quarter

Hourly Weather History & Observations

Time (MST) Temp. Windchill Dew Point Humidity Pressure Visibility Wind Dir Wind Speed Gust Speed Precip Events Conditions
12:15 AM 39.6 °F - 19.6 °F 45% 30.43 in 10.0 mi Calm Calm - N/A   Clear
12:35 AM 42.4 °F 39.6 °F 19.2 °F 39% 30.43 in 10.0 mi NNW 4.6 mph - N/A   Clear
12:55 AM 43.3 °F - 20.1 °F 40% 30.43 in 10.0 mi Calm Calm - N/A   Clear
1:15 AM 40.8 °F - 20.7 °F 45% 30.44 in 10.0 mi Calm Calm - N/A   Clear
1:35 AM 38.5 °F 35.0 °F 21.0 °F 50% 30.44 in 10.0 mi NW 4.6 mph - N/A   Clear
1:55 AM 34.0 °F 26.6 °F 21.7 °F 61% 30.45 in 10.0 mi WNW 9.2 mph - N/A   Clear
2:15 AM 36.5 °F 30.3 °F 24.4 °F 62% 30.45 in 10.0 mi WNW 8.1 mph - N/A   Clear
2:35 AM 37.0 °F 32.4 °F 24.6 °F 61% 30.46 in 10.0 mi WNW 5.8 mph - N/A   Clear
2:55 AM 35.8 °F - 25.3 °F 66% 30.46 in 10.0 mi Calm Calm - N/A   Clear
3:15 AM 37.2 °F 31.9 °F 26.1 °F 64% 30.47 in 10.0 mi WNW 6.9 mph - N/A   Clear
3:35 AM 37.0 °F 34.5 °F 27.1 °F 67% 30.48 in 10.0 mi North 3.5 mph - N/A   Clear
3:55 AM 38.8 °F 33.8 °F 28.4 °F 66% 30.48 in 10.0 mi NW 6.9 mph - N/A   Clear
4:15 AM 36.5 °F 31.0 °F 27.5 °F 70% 30.49 in 10.0 mi NW 6.9 mph - N/A   Clear
4:35 AM 36.1 °F 31.4 °F 28.2 °F 73% 30.50 in 10.0 mi NNW 5.8 mph - N/A   Clear
5:50 AM 33.8 °F 29.6 °F 26.6 °F 75% 30.53 in 10.0 mi WNW 4.6 mph - N/A   Clear
6:48 AM 35.6 °F 29.2 °F 30.2 °F 81% 30.55 in 10.0 mi NW 8.1 mph - N/A   Clear
7:48 AM 41.0 °F 34.7 °F 33.8 °F 76% 30.58 in 10.0 mi NNW 10.4 mph - N/A   Clear
8:47 AM 42.8 °F 35.4 °F 33.8 °F 70% 30.61 in 10.0 mi North 15.0 mph - N/A   Clear
9:49 AM 44.6 °F 40.2 °F 33.8 °F 66% 30.62 in 10.0 mi NNW 8.1 mph - N/A   Clear
10:11 AM 44.6 °F 38.4 °F 30.2 °F 57% 30.62 in 10.0 mi SE 12.7 mph - N/A   Clear
10:49 AM 46.4 °F 39.5 °F 30.2 °F 53% 30.61 in 10.0 mi SSE 17.3 mph - N/A   Clear
11:48 AM 48.2 °F - 30.2 °F 50% 30.61 in 10.0 mi SE 16.1 mph 23.0 mph N/A   Clear
12:50 PM 50.0 °F - 30.2 °F 47% 30.59 in 10.0 mi SE 10.4 mph - N/A   Clear
1:50 PM 51.8 °F - 30.2 °F 44% 30.56 in 10.0 mi SE 8.1 mph - N/A   Clear
2:51 PM 51.8 °F - 30.2 °F 44% 30.55 in 10.0 mi Calm Calm - N/A   Clear
3:50 PM 53.6 °F - 30.2 °F 41% 30.54 in 10.0 mi Calm Calm - N/A   Clear
4:49 PM 51.8 °F - 30.2 °F 44% 30.53 in 10.0 mi SE 6.9 mph - N/A   Clear
5:50 PM 42.8 °F 38.6 °F 30.2 °F 61% 30.53 in 10.0 mi SSE 6.9 mph - N/A   Clear
6:50 PM 42.8 °F 41.1 °F 30.2 °F 61% 30.56 in 10.0 mi South 3.5 mph - N/A   Clear
7:50 PM 35.6 °F 30.7 °F 28.4 °F 75% 30.57 in 10.0 mi SSW 5.8 mph - N/A   Clear
8:50 PM 33.8 °F 29.6 °F 26.6 °F 75% 30.58 in 10.0 mi SSW 4.6 mph - N/A   Clear
9:15 PM 34.5 °F - 28.2 °F 78% 30.58 in 10.0 mi Calm Calm - N/A   Clear
9:35 PM 33.3 °F - 27.9 °F 81% 30.58 in 10.0 mi Calm Calm - N/A   Clear
9:50 PM 33.8 °F - 28.4 °F 81% 30.58 in 10.0 mi Calm Calm - N/A   Clear
9:55 PM 33.3 °F - 27.3 °F 79% 30.58 in 10.0 mi Calm Calm - N/A   Clear
10:15 PM 32.0 °F 28.7 °F 27.0 °F 82% 30.58 in 10.0 mi West 3.5 mph - N/A   Clear
10:35 PM 32.0 °F 27.5 °F 27.3 °F 83% 30.57 in 10.0 mi WNW 4.6 mph - N/A   Clear
10:55 PM 32.2 °F 27.7 °F 28.2 °F 85% 30.57 in 10.0 mi NW 4.6 mph - N/A   Clear
11:15 PM 31.6 °F 25.1 °F 27.9 °F 86% 30.56 in 10.0 mi NW 6.9 mph - N/A   Clear
11:35 PM 31.5 °F 24.9 °F 27.9 °F 87% 30.56 in 10.0 mi NNW 6.9 mph - N/A   Clear
11:55 PM 30.9 °F 23.5 °F 27.9 °F 88% 30.56 in 10.0 mi NNW 8.1 mph - N/A   Clear